Retour au catalogue

STARLINK-34944

ActifCommunicationsSSO
NORAD 65182·PAYLOAD·🇺🇸 United States

Lancé Aug 14, 2025 depuis Vandenberg Space Force Base

Loading…

Prochains Passages (prochaines 24 heures)

TLE

FraisSource: CelesTrak SupGP

Époque: Sep 15, 2026, 02:49 UTC

1 65182C 25175J   26258.11784722  .00028408  00000+0  88166-3 0  2588
2 65182  97.2842 127.1850 0001843  98.8475  85.9384 15.33431322    12

Suivez STARLINK-34944 en temps réel avec AllMySat

Download on the App Store